GFSNW_700_temp_237.txt.gz
Temp
-2 -2 -2 -3 -2 -3 -3 -3 -3 -4 -4 -4 -4 -6 -8 -8 -8 -9 -9 -9 -10 -11 -11 -10 -11 -11 -10 -10 -10 -10 -10 -10 -10 -8 -7 -7 -8 -8 -7 -7 -5 -5 -6 -6
-2 -3 -3 -3 -4 -3 -3 -3 -3 -4 -4 -4 -5 -7 -8 -8 -8 -9 -9 -9 -10 -10 -11 -10 -10 -10 -9 -9 -9 -10 -10 -10 -10 -8 -6 -7 -8 -8 -8 -5 -5 -5 -4 -6
-3 -3 -4 -4 -4 -4 -4 -4 -4 -6 -5 -5 -6 -7 -8 -8 -8 -8 -8 -9 -10 -10 -9 -10 -10 -9 -8 -8 -9 -9 -10 -9 -10 -9 -9 -10 -9 -8 -8 -7 -6 -6 -7 -7
-4 -5 -4 -4 -4 -4 -4 -4 -4 -5 -6 -6 -7 -7 -8 -8 -8 -8 -8 -9 -9 -10 -9 -10 -10 -9 -8 -8 -8 -9 -10 -8 -9 -9 -8 -9 -8 -8 -9 -8 -8 -8 -8 -8
-5 -5 -5 -5 -5 -5 -4 -5 -4 -5 -6 -7 -7 -8 -8 -8 -8 -8 -8 -8 -8 -9 -9 -10 -9 -8 -9 -9 -8 -8 -8 -9 -9 -7 -8 -8 -8 -8 -9 -9 -9 -9 -9 -9
-5 -5 -5 -5 -5 -5 -5 -5 -4 -5 -7 -7 -7 -7 -7 -7 -8 -8 -7 -7 -8 -8 -9 -8 -8 -8 -8 -9 -9 -8 -8 -9 -9 -8 -8 -7 -8 -9 -9 -9 -9 -9 -9 -9
-5 -5 -5 -5 -5 -5 -5 -5 -5 -6 -7 -7 -7 -7 -7 -8 -8 -8 -7 -8 -8 -8 -8 -8 -8 -8 -8 -8 -9 -9 -8 -8 -9 -9 -8 -8 -9 -9 -8 -9 -10 -10 -10 -10
-6 -6 -6 -6 -6 -5 -6 -6 -6 -6 -6 -7 -7 -7 -7 -8 -8 -8 -8 -8 -8 -7 -7 -8 -8 -8 -8 -8 -9 -9 -8 -8 -8 -9 -9 -8 -9 -9 -9 -10 -10 -11 -11 -10
-6 -6 -6 -5 -6 -6 -6 -6 -6 -6 -6 -7 -7 -7 -7 -8 -8 -8 -8 -8 -8 -7 -7 -7 -9 -10 -10 -9 -8 -9 -9 -8 -9 -9 -9 -8 -10 -9 -9 -8 -10 -11 -11 -9
-6 -5 -6 -6 -6 -6 -7 -6 -6 -7 -6 -7 -7 -7 -8 -8 -8 -8 -8 -8 -7 -7 -8 -8 -9 -9 -9 -9 -9 -9 -9 -8 -9 -9 -10 -9 -9 -9 -8 -9 -10 -11 -10 -9
-5 -6 -5 -5 -6 -7 -7 -6 -7 -6 -6 -7 -7 -7 -8 -8 -8 -8 -8 -7 -7 -7 -7 -8 -9 -9 -9 -9 -9 -9 -9 -9 -10 -9 -10 -9 -9 -9 -10 -10 -11 -11 -10 -9
-6 -6 -5 -5 -6 -6 -7 -6 -6 -6 -6 -6 -7 -7 -8 -8 -8 -8 -7 -7 -7 -8 -8 -8 -8 -9 -9 -9 -9 -9 -9 -9 -9 -9 -10 -10 -10 -10 -10 -10 -10 -10 -10 -10
-6 -6 -6 -6 -6 -7 -6 -6 -6 -6 -6 -7 -7 -8 -8 -8 -8 -8 -8 -8 -8 -8 -8 -8 -9 -9 -9 -9 -9 -9 -9 -9 -9 -9 -9 -9 -10 -10 -10 -11 -11 -11 -10 -10
-7 -6 -6 -6 -6 -6 -6 -6 -6 -6 -6 -6 -7 -8 -8 -8 -8 -8 -8 -8 -8 -8 -8 -9 -9 -9 -9 -9 -9 -9 -9 -9 -9 -9 -9 -9 -9 -10 -10 -11 -11 -11 -10 -10
-7 -7 -7 -6 -6 -6 -6 -6 -6 -6 -6 -6 -7 -8 -8 -8 -8 -9 -9 -9 -9 -9 -9 -9 -9 -9 -9 -9 -9 -8 -9 -9 -9 -9 -10 -10 -10 -9 -10 -10 -11 -11 -11 -10
-8 -7 -6 -6 -6 -6 -6 -6 -6 -5 -6 -6 -7 -8 -8 -8 -9 -9 -9 -9 -9 -10 -10 -9 -9 -9 -10 -10 -9 -8 -8 -9 -9 -10 -10 -10 -9 -9 -10 -11 -11 -11 -11 -10
-8 -7 -7 -6 -6 -6 -6 -6 -6 -6 -6 -6 -7 -8 -8 -9 -9 -9 -10 -10 -10 -10 -10 -9 -9 -9 -10 -10 -9 -8 -9 -9 -9 -10 -10 -9 -9 -10 -10 -11 -11 -11 -10 -10
-8 -7 -7 -6 -7 -6 -6 -6 -6 -6 -6 -7 -8 -8 -8 -9 -9 -10 -10 -10 -10 -10 -10 -10 -9 -10 -10 -10 -8 -9 -9 -9 -9 -10 -10 -9 -10 -10 -10 -10 -11 -11 -11 -11
-8 -7 -7 -7 -7 -6 -6 -7 -7 -6 -6 -7 -7 -8 -8 -9 -9 -10 -10 -10 -10 -10 -10 -10 -10 -11 -10 -8 -9 -9 -9 -9 -10 -10 -10 -10 -10 -10 -11 -11 -11 -11 -11 -11
-8 -8 -8 -7 -7 -7 -7 -7 -7 -6 -7 -7 -7 -8 -8 -9 -9 -10 -10 -10 -10 -11 -10 -10 -10 -9 -8 -8 -9 -9 -10 -10 -10 -10 -10 -10 -10 -10 -11 -11 -11 -11 -11 -11
-8 -8 -7 -7 -7 -7 -7 -7 -7 -7 -8 -8 -8 -8 -9 -9 -10 -10 -10 -10 -10 -11 -10 -11 -10 -9 -9 -9 -9 -9 -10 -10 -10 -10 -10 -10 -11 -11 -11 -11 -11 -11 -11 -11
-8 -8 -8 -7 -8 -8 -8 -8 -8 -8 -8 -8 -8 -8 -9 -9 -10 -10 -10 -11 -11 -11 -11 -11 -10 -8 -9 -9 -9 -9 -10 -10 -10 -10 -10 -11 -11 -11 -11 -11 -11 -11 -11 -10
-9 -8 -8 -8 -8 -8 -8 -8 -7 -7 -7 -8 -8 -8 -9 -10 -10 -10 -11 -11 -11 -11 -11 -10 -8 -9 -9 -9 -10 -10 -10 -10 -10 -10 -11 -11 -11 -11 -11 -11 -11 -11 -11 -11
-9 -9 -8 -7 -7 -7 -7 -7 -7 -7 -7 -8 -9 -9 -10 -10 -10 -11 -11 -11 -11 -11 -11 -9 -8 -9 -9 -10 -10 -10 -10 -10 -11 -11 -11 -11 -11 -11 -11 -11 -11 -11 -11 -11
-10 -9 -9 -8 -8 -7 -7 -7 -8 -8 -8 -9 -9 -10 -10 -11 -11 -11 -11 -11 -11 -10 -8 -8 -9 -9 -10 -10 -10 -11 -11 -11 -11 -11 -12 -12 -12 -12 -12 -12 -11 -11 -11 -11
-10 -9 -8 -8 -8 -8 -8 -8 -8 -9 -9 -10 -10 -11 -11 -11 -11 -11 -11 -11 -9 -8 -9 -9 -9 -10 -10 -11 -11 -11 -11 -11 -12 -12 -12 -12 -12 -12 -12 -12 -12 -11 -11 -11
-11 -10 -8 -8 -8 -8 -8 -9 -9 -9 -9 -10 -10 -10 -10 -11 -11 -11 -10 -8 -8 -9 -9 -10 -10 -10 -11 -11 -11 -11 -12 -12 -12 -12 -12 -13 -13 -13 -13 -12 -12 -12 -12 -12

GFSNW_700_temp_240.txt.gz
Temp
-3 -3 -3 -2 -2 -2 -2 -4 -3 -3 -2 -3 -4 -4 -5 -7 -7 -7 -7 -8 -9 -9 -9 -10 -10 -9 -10 -10 -10 -9 -10 -10 -8 -6 -7 -8 -8 -8 -8 -7 -5 -5 -5 -8
-3 -3 -2 -2 -2 -2 -3 -3 -3 -3 -3 -4 -4 -5 -7 -7 -7 -7 -7 -8 -8 -9 -10 -10 -10 -10 -9 -9 -9 -8 -9 -9 -7 -5 -6 -7 -8 -8 -8 -6 -6 -5 -5 -8
-2 -2 -2 -2 -2 -2 -3 -3 -4 -5 -4 -4 -4 -7 -7 -7 -7 -7 -7 -8 -8 -10 -10 -10 -9 -9 -8 -8 -8 -8 -10 -9 -9 -8 -8 -9 -8 -9 -9 -8 -8 -7 -8 -9
-2 -2 -2 -3 -3 -3 -4 -3 -3 -4 -5 -5 -6 -6 -6 -7 -7 -7 -8 -8 -8 -8 -8 -9 -9 -8 -7 -8 -8 -8 -8 -9 -8 -8 -8 -8 -9 -9 -9 -9 -9 -9 -9 -9
-2 -2 -2 -3 -4 -3 -3 -3 -3 -4 -6 -6 -6 -5 -7 -7 -7 -7 -8 -9 -8 -8 -7 -7 -7 -7 -8 -8 -8 -8 -8 -9 -8 -7 -6 -7 -8 -9 -8 -9 -9 -9 -9 -10
-3 -3 -3 -4 -4 -4 -4 -3 -3 -4 -6 -6 -6 -6 -7 -7 -7 -7 -7 -8 -8 -7 -7 -7 -7 -7 -8 -8 -8 -8 -8 -9 -8 -6 -6 -6 -7 -9 -10 -9 -10 -11 -11 -11
-4 -4 -4 -4 -4 -5 -4 -4 -4 -5 -5 -6 -6 -7 -7 -6 -7 -7 -7 -7 -6 -6 -7 -7 -7 -8 -8 -8 -8 -8 -9 -9 -8 -7 -6 -6 -9 -9 -9 -10 -10 -10 -10 -9
-4 -5 -5 -5 -5 -5 -5 -5 -5 -4 -4 -6 -7 -7 -6 -6 -7 -6 -6 -6 -6 -6 -6 -7 -8 -8 -8 -8 -9 -9 -8 -9 -9 -7 -6 -7 -8 -9 -9 -10 -10 -10 -10 -9
-5 -5 -5 -5 -5 -5 -5 -5 -5 -4 -4 -6 -7 -7 -6 -6 -7 -7 -6 -6 -6 -6 -6 -7 -8 -7 -8 -7 -8 -9 -8 -9 -9 -8 -6 -7 -9 -9 -9 -9 -9 -11 -10 -9
-6 -5 -6 -5 -5 -5 -5 -5 -5 -6 -5 -6 -7 -6 -6 -6 -6 -7 -7 -7 -7 -7 -7 -8 -8 -8 -8 -8 -8 -8 -8 -9 -9 -9 -8 -8 -10 -9 -9 -8 -10 -10 -10 -9
-6 -5 -5 -5 -5 -5 -5 -4 -5 -6 -6 -6 -7 -7 -6 -6 -6 -6 -7 -7 -7 -7 -7 -7 -8 -8 -8 -8 -8 -9 -9 -9 -9 -9 -8 -8 -10 -9 -10 -10 -10 -10 -10 -10
-6 -5 -5 -5 -5 -5 -5 -5 -5 -6 -6 -6 -7 -7 -6 -6 -6 -6 -7 -7 -7 -7 -7 -7 -8 -8 -8 -8 -8 -8 -8 -9 -9 -9 -9 -10 -10 -10 -10 -10 -11 -11 -10 -10
-5 -5 -5 -4 -5 -5 -5 -5 -6 -6 -7 -7 -7 -7 -7 -7 -7 -7 -7 -7 -7 -7 -7 -7 -7 -8 -8 -9 -8 -9 -9 -9 -9 -9 -9 -10 -10 -10 -11 -11 -11 -11 -11 -10
-5 -5 -5 -5 -5 -5 -5 -5 -6 -6 -7 -7 -7 -7 -7 -7 -7 -7 -7 -7 -7 -7 -7 -7 -8 -8 -8 -9 -9 -9 -9 -9 -9 -9 -9 -9 -10 -10 -9 -10 -10 -11 -10 -10
-5 -5 -5 -5 -5 -4 -5 -5 -6 -6 -6 -6 -7 -7 -7 -7 -7 -7 -7 -7 -7 -7 -7 -8 -9 -8 -9 -9 -8 -7 -9 -9 -9 -8 -9 -9 -10 -9 -9 -10 -10 -11 -11 -11
-5 -5 -5 -5 -5 -5 -5 -6 -7 -7 -6 -6 -7 -7 -7 -7 -7 -7 -7 -8 -8 -8 -8 -9 -9 -9 -9 -10 -9 -9 -9 -8 -9 -9 -9 -9 -9 -9 -9 -10 -10 -11 -11 -11
-6 -5 -5 -5 -5 -5 -5 -6 -6 -7 -6 -6 -6 -7 -7 -7 -7 -8 -8 -8 -8 -9 -9 -9 -10 -11 -10 -11 -9 -9 -9 -9 -9 -9 -9 -10 -10 -9 -9 -10 -10 -10 -11 -11
-6 -6 -6 -6 -6 -6 -6 -6 -6 -6 -6 -6 -6 -7 -7 -8 -7 -8 -9 -9 -9 -9 -10 -10 -10 -11 -11 -10 -7 -8 -8 -9 -9 -9 -9 -10 -10 -10 -10 -10 -10 -11 -11 -11
-6 -6 -6 -6 -6 -6 -7 -6 -6 -6 -6 -6 -6 -6 -7 -7 -7 -8 -9 -9 -10 -10 -10 -11 -11 -11 -10 -7 -9 -9 -9 -9 -9 -9 -10 -10 -10 -10 -10 -10 -11 -11 -11 -11
-7 -7 -7 -7 -7 -7 -7 -7 -6 -6 -6 -6 -6 -6 -6 -7 -8 -9 -9 -10 -10 -11 -11 -10 -10 -8 -8 -8 -8 -8 -9 -10 -10 -10 -10 -10 -10 -10 -10 -11 -11 -11 -11 -10
-7 -7 -7 -7 -7 -7 -6 -6 -6 -6 -6 -6 -6 -6 -6 -8 -9 -9 -9 -10 -10 -11 -10 -11 -10 -9 -8 -8 -8 -8 -9 -9 -10 -10 -10 -10 -10 -10 -11 -11 -11 -11 -10 -10
-8 -8 -8 -7 -7 -7 -7 -7 -6 -7 -6 -7 -7 -7 -7 -8 -9 -10 -9 -10 -10 -11 -11 -11 -10 -8 -8 -8 -8 -9 -9 -10 -10 -10 -10 -10 -11 -11 -11 -11 -11 -11 -11 -10
-9 -9 -8 -7 -7 -7 -7 -6 -7 -7 -7 -6 -7 -7 -8 -9 -9 -9 -10 -10 -11 -11 -11 -10 -7 -7 -8 -8 -9 -9 -10 -10 -10 -10 -10 -11 -11 -11 -11 -11 -11 -11 -11 -10
-9 -9 -8 -8 -7 -7 -7 -7 -6 -6 -6 -7 -7 -8 -9 -9 -9 -9 -10 -10 -10 -11 -11 -8 -8 -8 -8 -9 -9 -10 -10 -10 -10 -11 -11 -11 -11 -11 -12 -12 -12 -11 -11 -11
-10 -9 -8 -8 -7 -7 -7 -7 -7 -7 -7 -7 -8 -9 -9 -9 -10 -10 -10 -10 -11 -10 -8 -8 -8 -9 -9 -9 -10 -10 -10 -11 -11 -11 -11 -12 -12 -12 -12 -12 -12 -12 -11 -11
-10 -9 -8 -8 -8 -8 -8 -8 -8 -8 -8 -9 -9 -10 -9 -9 -10 -10 -10 -10 -9 -7 -8 -8 -9 -9 -10 -10 -10 -10 -11 -11 -11 -11 -12 -12 -12 -12 -13 -13 -13 -13 -12 -12
-10 -9 -8 -8 -8 -8 -8 -8 -8 -8 -9 -9 -9 -9 -9 -10 -10 -10 -10 -8 -8 -8 -9 -9 -9 -10 -10 -10 -11 -11 -11 -11 -11 -12 -12 -12 -12 -13 -13 -13 -13 -13 -12 -12

GFSNW_700_temp_243.txt.gz
Temp
-2 -3 -3 -3 -3 -3 -3 -3 -2 -4 -5 -4 -4 -3 -3 -3 -4 -5 -7 -7 -7 -7 -8 -7 -7 -7 -8 -7 -9 -8 -8 -8 -8 -6 -5 -6 -8 -8 -7 -6 -5 -5 -5 -8
-2 -3 -3 -4 -4 -3 -3 -3 -4 -5 -4 -4 -4 -4 -3 -4 -6 -7 -8 -8 -8 -8 -8 -8 -8 -8 -8 -8 -8 -8 -8 -8 -6 -4 -5 -6 -8 -8 -8 -7 -6 -6 -5 -8
-3 -3 -4 -4 -4 -3 -3 -3 -6 -6 -5 -4 -3 -3 -4 -5 -8 -8 -8 -8 -8 -8 -7 -8 -8 -7 -8 -7 -8 -7 -8 -8 -8 -7 -7 -8 -8 -9 -8 -8 -7 -8 -9 -9
-3 -3 -4 -4 -4 -3 -2 -4 -4 -3 -4 -4 -4 -4 -5 -5 -7 -7 -8 -8 -8 -8 -8 -7 -7 -7 -7 -8 -8 -7 -7 -7 -6 -5 -6 -7 -8 -8 -9 -9 -9 -9 -9 -10
-2 -3 -3 -3 -3 -2 -3 -4 -3 -3 -3 -4 -7 -5 -7 -7 -6 -6 -8 -8 -7 -7 -7 -8 -8 -8 -7 -7 -7 -7 -7 -6 -5 -4 -6 -6 -8 -8 -9 -8 -8 -9 -10 -10
-3 -3 -3 -3 -2 -3 -3 -3 -3 -2 -5 -7 -5 -5 -7 -7 -5 -7 -8 -7 -7 -7 -8 -7 -8 -8 -7 -8 -8 -8 -8 -7 -6 -4 -4 -5 -7 -8 -9 -10 -9 -9 -10 -10
-3 -3 -3 -3 -3 -3 -3 -3 -3 -2 -4 -6 -7 -7 -7 -6 -6 -5 -6 -6 -8 -7 -6 -6 -7 -7 -8 -8 -7 -8 -8 -7 -6 -5 -4 -6 -8 -8 -9 -9 -10 -10 -9 -10
-3 -2 -3 -3 -4 -4 -4 -3 -3 -2 -5 -7 -7 -6 -7 -7 -5 -6 -6 -6 -6 -6 -6 -7 -6 -6 -6 -6 -7 -7 -7 -7 -7 -6 -4 -7 -7 -8 -8 -9 -9 -9 -9 -9
-3 -3 -3 -4 -4 -5 -4 -3 -3 -3 -4 -7 -5 -6 -5 -5 -6 -6 -6 -6 -6 -6 -7 -7 -5 -4 -6 -6 -5 -6 -7 -7 -7 -7 -5 -5 -8 -8 -8 -8 -8 -9 -9 -9
-4 -4 -4 -4 -5 -5 -4 -5 -5 -5 -4 -5 -5 -6 -7 -6 -6 -7 -6 -6 -6 -6 -7 -6 -5 -6 -7 -6 -6 -6 -6 -7 -7 -7 -7 -7 -8 -8 -8 -8 -8 -9 -9 -10
-5 -5 -5 -5 -5 -5 -5 -5 -5 -6 -5 -5 -6 -5 -5 -5 -6 -6 -6 -6 -6 -6 -6 -7 -7 -6 -7 -7 -7 -7 -7 -7 -7 -7 -7 -7 -9 -8 -8 -9 -9 -9 -10 -10
-5 -5 -5 -5 -5 -5 -5 -5 -5 -6 -5 -4 -5 -5 -5 -6 -8 -6 -6 -6 -6 -6 -6 -6 -7 -7 -8 -7 -6 -8 -7 -7 -8 -8 -8 -9 -8 -9 -9 -9 -9 -9 -10 -11
-5 -5 -5 -5 -5 -5 -5 -5 -5 -5 -5 -5 -6 -6 -6 -6 -6 -6 -7 -6 -6 -6 -6 -6 -7 -8 -8 -7 -6 -7 -7 -8 -8 -8 -8 -8 -8 -9 -9 -9 -9 -10 -10 -11
-5 -5 -6 -5 -5 -5 -6 -6 -5 -5 -5 -6 -6 -6 -6 -6 -6 -6 -6 -6 -6 -6 -6 -7 -7 -8 -8 -7 -7 -7 -7 -7 -7 -7 -7 -8 -8 -8 -9 -10 -10 -10 -11 -11
-6 -6 -6 -6 -6 -5 -5 -5 -5 -4 -5 -5 -6 -7 -7 -6 -6 -6 -6 -6 -6 -6 -7 -7 -8 -8 -8 -8 -8 -8 -7 -7 -7 -7 -7 -8 -8 -9 -10 -10 -10 -10 -11 -11
-6 -6 -6 -5 -5 -6 -6 -5 -5 -6 -6 -5 -7 -7 -7 -7 -7 -7 -7 -7 -7 -7 -7 -9 -9 -8 -8 -8 -7 -7 -7 -8 -8 -8 -8 -9 -9 -10 -10 -10 -10 -11 -11 -12
-6 -6 -6 -5 -5 -5 -5 -4 -4 -5 -6 -6 -6 -7 -7 -7 -7 -7 -7 -7 -7 -7 -9 -8 -9 -9 -9 -9 -8 -8 -8 -8 -8 -8 -9 -9 -9 -9 -10 -10 -10 -10 -11 -11
-6 -6 -5 -5 -5 -5 -5 -4 -5 -5 -6 -7 -7 -9 -7 -8 -8 -9 -10 -8 -8 -8 -9 -9 -9 -9 -10 -9 -8 -8 -8 -8 -8 -9 -9 -9 -10 -10 -10 -10 -11 -11 -11 -11
-6 -6 -6 -6 -5 -5 -5 -5 -5 -6 -6 -7 -6 -7 -9 -7 -10 -10 -9 -10 -10 -10 -10 -9 -9 -9 -9 -8 -9 -8 -8 -9 -9 -9 -9 -9 -10 -10 -11 -11 -11 -11 -11 -11
-6 -6 -6 -6 -6 -6 -6 -6 -6 -7 -7 -6 -7 -9 -7 -8 -10 -10 -9 -9 -9 -9 -9 -10 -10 -9 -8 -8 -9 -9 -9 -10 -10 -10 -10 -10 -10 -10 -11 -10 -10 -11 -10 -10
-6 -6 -5 -6 -6 -6 -6 -6 -7 -7 -6 -6 -7 -9 -6 -8 -9 -9 -9 -10 -9 -9 -8 -9 -8 -8 -8 -7 -7 -7 -8 -8 -9 -10 -10 -10 -10 -10 -10 -11 -11 -11 -11 -11
-6 -6 -6 -6 -6 -6 -6 -6 -6 -7 -8 -7 -7 -7 -9 -8 -9 -9 -9 -9 -10 -9 -10 -10 -9 -8 -7 -7 -7 -7 -8 -9 -9 -9 -10 -10 -10 -10 -11 -11 -11 -11 -11 -11
-7 -7 -7 -6 -6 -6 -6 -6 -7 -7 -7 -7 -9 -8 -9 -8 -9 -10 -9 -10 -10 -10 -10 -9 -8 -7 -7 -7 -8 -8 -9 -9 -9 -10 -10 -10 -10 -11 -11 -11 -11 -12 -12 -11
-7 -7 -7 -7 -7 -7 -7 -9 -9 -6 -6 -7 -8 -8 -8 -9 -9 -8 -9 -10 -10 -10 -9 -8 -7 -8 -8 -8 -8 -9 -9 -9 -10 -10 -10 -10 -11 -11 -11 -12 -12 -12 -12 -12
-8 -7 -7 -7 -7 -7 -7 -6 -6 -6 -7 -9 -9 -9 -9 -10 -9 -9 -10 -10 -10 -9 -8 -7 -8 -8 -8 -8 -9 -9 -10 -10 -10 -10 -11 -11 -11 -11 -12 -12 -12 -12 -12 -12
-8 -8 -8 -7 -7 -7 -7 -7 -7 -7 -10 -10 -10 -9 -9 -8 -9 -10 -9 -9 -9 -8 -8 -8 -8 -8 -8 -9 -9 -9 -10 -10 -10 -11 -11 -11 -11 -12 -12 -12 -12 -12 -12 -12
-9 -8 -8 -8 -8 -7 -7 -7 -7 -7 -9 -10 -10 -8 -8 -9 -10 -9 -9 -8 -8 -8 -7 -8 -8 -8 -9 -9 -9 -9 -10 -10 -11 -11 -11 -11 -12 -12 -12 -12 -12 -12 -12 -12

GFSNW_700_temp_246.txt.gz
Temp
-1 -0 -2 -2 -2 -2 -3 -4 -3 -3 -3 -3 -3 -4 -3 -3 -5 -3 -5 -6 -6 -6 -6 -6 -6 -6 -6 -6 -7 -7 -7 -7 -7 -5 -6 -7 -8 -8 -7 -5 -6 -6 -6 -9
-1 -1 -3 -1 -2 -2 -3 -4 -4 -3 -3 -3 -4 -5 -4 -4 -4 -5 -5 -6 -6 -7 -7 -6 -6 -7 -6 -6 -7 -6 -7 -7 -5 -4 -5 -7 -8 -7 -8 -8 -7 -7 -6 -8
-2 -2 -1 -3 -2 -3 -4 -3 -4 -4 -4 -3 -5 -4 -5 -6 -6 -5 -5 -6 -7 -7 -7 -7 -6 -6 -6 -6 -7 -7 -7 -6 -6 -6 -7 -7 -8 -7 -7 -7 -8 -8 -9 -9
-1 -3 -2 -3 -4 -4 -4 -4 -3 -2 -3 -4 -6 -5 -5 -6 -5 -4 -7 -7 -7 -7 -6 -6 -6 -6 -6 -7 -6 -6 -6 -6 -5 -4 -6 -6 -7 -8 -8 -7 -8 -8 -9 -9
-2 -1 -3 -3 -3 -4 -4 -3 -3 -3 -3 -3 -5 -6 -6 -4 -3 -5 -7 -7 -7 -6 -6 -6 -6 -6 -6 -6 -6 -6 -6 -5 -5 -5 -5 -6 -7 -8 -8 -8 -8 -9 -9 -9
-1 -2 -4 -3 -2 -4 -4 -3 -3 -3 -4 -4 -6 -5 -4 -4 -5 -6 -6 -6 -7 -6 -7 -7 -7 -7 -7 -7 -7 -7 -7 -6 -5 -4 -4 -6 -6 -8 -8 -9 -9 -9 -9 -9
-2 -3 -3 -2 -4 -4 -4 -4 -2 -4 -4 -6 -5 -4 -3 -6 -5 -6 -7 -7 -7 -7 -6 -6 -6 -7 -7 -7 -6 -6 -7 -6 -6 -5 -5 -6 -7 -7 -8 -8 -8 -8 -8 -8
-2 -3 -3 -3 -4 -3 -4 -3 -3 -3 -4 -4 -4 -5 -6 -6 -6 -7 -5 -6 -7 -6 -6 -7 -6 -6 -6 -6 -6 -6 -6 -6 -6 -5 -5 -7 -6 -7 -7 -8 -8 -8 -8 -8
-3 -3 -3 -4 -4 -3 -5 -3 -4 -4 -2 -4 -3 -6 -6 -6 -7 -6 -7 -5 -5 -6 -7 -6 -5 -4 -4 -4 -5 -5 -5 -6 -7 -6 -5 -5 -7 -7 -7 -8 -8 -8 -8 -8
-3 -3 -3 -4 -3 -5 -4 -4 -4 -4 -3 -3 -5 -6 -5 -6 -5 -5 -5 -5 -5 -6 -6 -6 -4 -4 -5 -5 -5 -5 -6 -6 -6 -7 -6 -6 -7 -7 -6 -7 -8 -8 -8 -9
-3 -3 -4 -4 -4 -5 -5 -5 -4 -3 -3 -5 -6 -6 -6 -6 -6 -5 -5 -6 -6 -6 -6 -6 -6 -5 -6 -6 -6 -6 -7 -7 -6 -6 -7 -6 -7 -8 -8 -8 -8 -8 -9 -9
-4 -4 -4 -5 -5 -5 -6 -4 -4 -4 -4 -6 -7 -7 -7 -7 -7 -6 -5 -6 -6 -5 -6 -6 -7 -6 -6 -6 -6 -7 -6 -7 -7 -7 -7 -7 -7 -8 -8 -8 -8 -9 -9 -10
-5 -5 -5 -5 -5 -5 -5 -4 -3 -3 -4 -4 -5 -5 -6 -5 -6 -4 -6 -5 -5 -5 -6 -6 -7 -7 -7 -6 -6 -6 -6 -6 -7 -7 -7 -7 -7 -8 -8 -8 -9 -9 -9 -10
-5 -5 -5 -5 -5 -5 -5 -4 -4 -5 -5 -5 -5 -5 -5 -5 -5 -5 -5 -5 -5 -6 -6 -6 -6 -7 -7 -6 -6 -6 -6 -6 -7 -7 -7 -7 -7 -8 -8 -9 -8 -9 -10 -10
-6 -6 -6 -6 -6 -6 -5 -5 -5 -6 -5 -6 -5 -5 -5 -6 -6 -6 -5 -5 -6 -6 -6 -6 -7 -7 -7 -7 -7 -7 -6 -6 -6 -7 -7 -7 -7 -8 -8 -9 -9 -9 -10 -10
-6 -6 -6 -5 -5 -5 -5 -6 -6 -5 -5 -5 -6 -5 -6 -6 -6 -6 -6 -6 -6 -7 -8 -8 -8 -8 -7 -8 -7 -6 -6 -6 -7 -7 -7 -7 -8 -8 -9 -9 -10 -10 -10 -10
-6 -6 -6 -6 -6 -5 -6 -5 -5 -6 -5 -5 -5 -6 -6 -6 -6 -6 -6 -6 -7 -7 -8 -8 -8 -8 -8 -8 -8 -7 -7 -7 -7 -7 -8 -8 -8 -9 -9 -10 -10 -10 -11 -11
-6 -6 -6 -6 -6 -6 -5 -5 -5 -5 -6 -6 -5 -8 -7 -6 -6 -7 -7 -7 -7 -8 -8 -8 -8 -8 -8 -8 -7 -7 -7 -7 -7 -7 -8 -8 -8 -9 -9 -10 -10 -10 -11 -10
-6 -6 -6 -6 -6 -6 -6 -5 -5 -5 -5 -5 -6 -5 -7 -6 -7 -9 -9 -9 -9 -8 -9 -8 -8 -8 -8 -6 -8 -8 -8 -8 -8 -8 -8 -8 -9 -9 -10 -10 -10 -10 -10 -10
-5 -6 -6 -6 -6 -6 -6 -6 -6 -6 -6 -5 -6 -7 -6 -6 -8 -9 -9 -9 -9 -8 -8 -8 -8 -7 -7 -8 -8 -8 -8 -8 -9 -9 -9 -9 -9 -10 -10 -10 -10 -10 -11 -11
-6 -5 -6 -6 -7 -6 -7 -7 -7 -6 -6 -6 -6 -8 -6 -8 -9 -9 -9 -8 -8 -8 -7 -8 -7 -7 -6 -6 -6 -6 -7 -7 -9 -9 -9 -9 -9 -9 -10 -10 -10 -11 -11 -11
-6 -6 -6 -7 -7 -6 -6 -6 -6 -6 -6 -5 -6 -7 -7 -8 -8 -8 -9 -9 -9 -8 -8 -8 -8 -7 -7 -6 -6 -7 -7 -7 -8 -9 -9 -9 -9 -9 -10 -10 -11 -11 -11 -12
-7 -7 -7 -6 -6 -6 -6 -6 -6 -6 -6 -6 -8 -8 -9 -9 -9 -9 -8 -9 -9 -9 -9 -9 -6 -7 -6 -7 -7 -7 -7 -8 -8 -9 -9 -9 -10 -10 -10 -10 -11 -11 -12 -12
-7 -7 -6 -6 -5 -6 -6 -8 -7 -6 -6 -7 -9 -9 -9 -9 -9 -8 -9 -9 -9 -9 -9 -8 -7 -8 -7 -7 -7 -8 -8 -8 -8 -9 -9 -9 -10 -10 -10 -11 -11 -11 -12 -12
-7 -6 -6 -6 -7 -7 -8 -7 -7 -6 -6 -8 -9 -9 -9 -9 -8 -8 -9 -9 -9 -9 -8 -7 -8 -8 -7 -7 -7 -8 -8 -8 -8 -9 -9 -9 -10 -10 -10 -11 -11 -11 -12 -12
-7 -7 -7 -7 -7 -6 -6 -6 -7 -8 -7 -9 -9 -9 -9 -9 -8 -9 -9 -9 -8 -7 -7 -7 -7 -7 -7 -8 -8 -8 -8 -8 -8 -9 -9 -9 -9 -10 -10 -10 -11 -11 -12 -12
-8 -7 -7 -7 -7 -7 -7 -7 -7 -9 -9 -9 -9 -9 -8 -9 -9 -9 -9 -8 -7 -8 -7 -7 -7 -7 -8 -8 -8 -8 -8 -8 -9 -9 -9 -10 -10 -10 -9 -10 -11 -11 -12 -12

GFSNW_700_temp_249.txt.gz
Temp
1 -1 -0 -1 -2 -2 -4 -4 -4 -4 -3 -3 -3 -3 -3 -3 -3 -3 -3 -3 -5 -5 -5 -6 -6 -6 -6 -6 -7 -7 -7 -7 -7 -6 -6 -6 -7 -7 -6 -6 -8 -6 -7 -9
-0 -1 -1 -1 -1 -2 -2 -4 -4 -4 -3 -3 -3 -3 -3 -4 -3 -4 -4 -5 -5 -5 -6 -6 -6 -6 -6 -6 -6 -6 -7 -6 -6 -6 -6 -6 -7 -7 -6 -6 -7 -7 -8 -8
-0 -2 -1 -1 -1 -1 -2 -3 -4 -4 -4 -4 -3 -3 -4 -5 -5 -5 -5 -5 -6 -5 -5 -6 -6 -6 -6 -6 -6 -6 -6 -6 -6 -6 -6 -6 -6 -7 -6 -5 -7 -8 -9 -8
-1 -2 -2 -1 -1 -1 -3 -3 -4 -2 -3 -3 -3 -3 -4 -4 -5 -6 -6 -6 -4 -5 -6 -6 -6 -6 -6 -6 -6 -6 -6 -6 -6 -7 -7 -7 -6 -6 -7 -6 -7 -8 -9 -9
-1 -1 -1 -1 -1 -2 -4 -3 -3 -2 -3 -3 -3 -5 -4 -4 -4 -5 -5 -4 -5 -6 -6 -6 -6 -6 -6 -6 -6 -6 -6 -6 -6 -6 -7 -7 -8 -7 -7 -7 -8 -8 -8 -8
-1 -2 -2 -1 -2 -3 -3 -2 -3 -3 -3 -3 -4 -3 -3 -5 -5 -6 -4 -3 -4 -5 -6 -6 -6 -6 -6 -7 -6 -6 -7 -6 -6 -5 -7 -8 -7 -7 -8 -8 -8 -8 -8 -8
-2 -2 -1 -2 -3 -3 -3 -2 -3 -4 -3 -4 -3 -3 -3 -5 -5 -3 -4 -4 -5 -6 -5 -6 -6 -6 -6 -6 -6 -6 -6 -6 -6 -6 -5 -7 -7 -7 -8 -8 -8 -8 -8 -8
-1 -1 -2 -2 -3 -4 -4 -3 -4 -3 -3 -4 -4 -4 -5 -6 -5 -4 -4 -6 -6 -5 -5 -6 -6 -6 -6 -6 -6 -6 -6 -6 -7 -6 -7 -7 -7 -7 -7 -7 -8 -8 -9 -9
-1 -1 -2 -3 -3 -3 -3 -4 -3 -3 -2 -3 -3 -4 -6 -5 -4 -4 -6 -6 -5 -5 -6 -6 -6 -6 -5 -5 -6 -5 -6 -6 -6 -7 -6 -7 -7 -7 -7 -8 -8 -8 -9 -9
-2 -3 -4 -4 -3 -3 -3 -4 -4 -4 -3 -3 -4 -6 -5 -4 -3 -3 -5 -5 -5 -5 -6 -6 -6 -5 -5 -5 -5 -5 -5 -6 -6 -6 -7 -7 -7 -7 -7 -8 -8 -8 -9 -9
-3 -3 -3 -3 -3 -3 -4 -5 -4 -4 -3 -4 -5 -6 -5 -4 -2 -2 -4 -5 -5 -5 -6 -6 -6 -5 -5 -5 -5 -6 -6 -6 -6 -7 -6 -7 -7 -7 -7 -8 -8 -8 -9 -9
-3 -3 -3 -3 -3 -4 -5 -5 -4 -4 -4 -6 -6 -6 -5 -5 -3 -3 -4 -4 -4 -5 -5 -6 -6 -6 -6 -6 -6 -6 -6 -6 -6 -7 -6 -6 -7 -7 -8 -8 -9 -8 -9 -9
-3 -3 -3 -3 -4 -4 -5 -3 -4 -5 -5 -6 -6 -6 -6 -5 -5 -5 -4 -4 -5 -5 -5 -5 -6 -6 -6 -6 -6 -6 -6 -6 -7 -7 -6 -7 -7 -7 -8 -8 -8 -8 -9 -9
-3 -3 -3 -4 -6 -5 -4 -4 -4 -5 -5 -5 -6 -6 -6 -5 -5 -4 -3 -4 -4 -5 -5 -5 -6 -6 -6 -6 -6 -6 -6 -6 -6 -7 -7 -7 -7 -8 -8 -8 -8 -9 -9 -9
-3 -4 -6 -5 -6 -6 -5 -5 -6 -6 -4 -3 -5 -5 -5 -5 -5 -5 -5 -5 -5 -5 -5 -5 -6 -6 -7 -7 -6 -6 -6 -6 -6 -6 -6 -7 -7 -8 -8 -9 -8 -9 -9 -9
-5 -6 -6 -5 -5 -5 -6 -7 -6 -5 -4 -3 -6 -5 -5 -6 -5 -5 -5 -5 -5 -5 -5 -5 -6 -7 -7 -7 -7 -5 -6 -6 -6 -6 -7 -7 -7 -8 -8 -9 -9 -9 -10 -10
-6 -6 -6 -5 -5 -6 -7 -6 -5 -4 -4 -3 -4 -5 -6 -6 -5 -5 -6 -5 -6 -6 -6 -6 -6 -7 -8 -8 -6 -6 -6 -6 -6 -7 -7 -7 -8 -8 -8 -9 -9 -10 -10 -10
-6 -6 -6 -6 -6 -7 -6 -5 -5 -5 -4 -4 -5 -6 -6 -6 -6 -6 -6 -6 -6 -6 -6 -6 -7 -7 -8 -7 -6 -7 -7 -7 -7 -7 -7 -8 -8 -8 -9 -9 -10 -10 -9 -10
-7 -6 -6 -6 -7 -6 -6 -5 -5 -4 -5 -5 -4 -4 -4 -5 -6 -6 -7 -7 -7 -7 -7 -6 -7 -7 -7 -5 -6 -6 -7 -7 -7 -8 -7 -8 -8 -9 -9 -10 -10 -9 -10 -10
-7 -7 -7 -7 -7 -7 -6 -6 -5 -5 -6 -5 -5 -5 -4 -5 -5 -6 -7 -7 -7 -8 -7 -7 -7 -6 -5 -5 -6 -7 -8 -8 -7 -7 -8 -9 -9 -9 -9 -9 -9 -10 -10 -10
-6 -7 -7 -6 -6 -6 -6 -6 -6 -6 -6 -6 -5 -4 -4 -6 -5 -6 -7 -8 -8 -9 -8 -8 -8 -6 -4 -4 -5 -6 -6 -7 -7 -8 -9 -9 -9 -9 -9 -10 -10 -10 -10 -11
-7 -6 -6 -6 -7 -6 -6 -6 -6 -6 -5 -5 -5 -5 -6 -6 -8 -8 -8 -8 -8 -8 -8 -8 -7 -5 -5 -5 -6 -6 -6 -6 -7 -8 -8 -8 -8 -9 -9 -9 -10 -10 -11 -11
-7 -7 -7 -7 -6 -5 -5 -6 -5 -5 -6 -6 -6 -6 -7 -8 -8 -8 -7 -8 -8 -8 -9 -7 -5 -6 -6 -5 -6 -6 -6 -7 -7 -8 -8 -8 -9 -9 -9 -9 -10 -10 -11 -12
-7 -7 -6 -5 -5 -5 -5 -5 -4 -4 -4 -6 -6 -6 -7 -8 -8 -7 -7 -7 -8 -9 -9 -6 -6 -6 -6 -6 -6 -6 -6 -7 -7 -8 -8 -8 -9 -9 -9 -9 -10 -10 -11 -12
-7 -6 -5 -6 -6 -6 -6 -5 -5 -5 -6 -6 -8 -8 -7 -8 -8 -7 -7 -8 -9 -8 -7 -7 -6 -7 -6 -6 -6 -7 -7 -7 -8 -8 -8 -8 -9 -9 -9 -10 -10 -10 -11 -11
-6 -6 -6 -6 -6 -5 -5 -6 -6 -6 -7 -8 -8 -9 -8 -8 -7 -7 -8 -9 -7 -6 -6 -7 -7 -6 -6 -7 -7 -7 -7 -7 -8 -8 -8 -8 -8 -9 -9 -9 -10 -10 -10 -11
-7 -7 -6 -6 -7 -6 -6 -6 -7 -7 -7 -8 -8 -8 -8 -8 -8 -8 -8 -7 -6 -5 -6 -6 -6 -7 -7 -7 -7 -7 -8 -8 -8 -8 -8 -9 -9 -9 -9 -9 -9 -9 -10 -11